"Sample Date","Sample Time","Sample Value","Units","Flow Rate","Number Channels","Micron Size 0","Counts/Channel 0","Micron Size 1","Counts/Channel 1","Micron Size 2","Counts/Channel 2","Micron Size 3","Counts/Channel 3","Micron Size 4","Counts/Channel 4","Micron Size 5","Counts/Channel 5","Micron Size 6","Counts/Channel 6","Micron Size 7","Counts/Channel 7","Micron Size 8","Counts/Channel 8","Micron Size 9","Counts/Channel 9","Micron Size 10","Counts/Channel 10","Micron Size 11","Counts/Channel 11","Micron Size 12","Counts/Channel 12","Micron Size 13","Counts/Channel 13","Micron Size 14","Counts/Channel 14","Micron Size 15","Counts/Channel 15","Micron Size 16","Counts/Channel 16","Micron Size 17","Counts/Channel 17","Micron Size 18","Counts/Channel 18","Micron Size 19","Counts/Channel 19","Micron Size 20","Counts/Channel 20","Micron Size 21","Counts/Channel 21","Micron Size 22","Counts/Channel 22","Micron Size 23","Counts/Channel 23","Micron Size 24","Counts/Channel 24","Micron Size 25","Counts/Channel 25","Micron Size 26","Counts/Channel 26","Micron Size 27","Counts/Channel 27","Micron Size 28","Counts/Channel 28","Micron Size 29","Counts/Channel 29","Micron Size 30","Counts/Channel 30","Micron Size 31","Counts/Channel 31"
"05/12/08","22:00:05",21036.000,"cc",28317.084,6,0.100,17757.000,0.200,3020.000,0.300,249.000,0.500,10.000,1.000,0,5.000,0
"05/12/08","22:00:11",21111.000,"cc",28322.422,6,0.100,17726.000,0.200,3141.000,0.300,234.000,0.500,10.000,1.000,0,5.000,0
"05/12/08","22:00:17",20501.000,"cc",28298.846,6,0.100,17270.000,0.200,3011.000,0.300,212.000,0.500,7.000,1.000,1.000,5.000,0
"05/12/08","22:00:23",19101.000,"cc",28350.668,6,0.100,16015.000,0.200,2856.000,0.300,224.000,0.500,6.000,1.000,0,5.000,0
"05/12/08","22:00:29",17668.000,"cc",28279.609,6,0.100,14786.000,0.200,2691.000,0.300,183.000,0.500,8.000,1.000,0,5.000,0
"05/12/08","22:00:35",18595.000,"cc",28330.652,6,0.100,15596.000,0.200,2793.000,0.300,194.000,0.500,10.000,1.000,2.000,5.000,0
"05/12/08","22:00:41",17170.000,"cc",28356.559,6,0.100,14457.000,0.200,2523.000,0.300,177.000,0.500,12.000,1.000,1.000,5.000,0
"05/12/08","22:00:47",16200.000,"cc",28276.670,6,0.100,13669.000,0.200,2341.000,0.300,183.000,0.500,7.000,1.000,0,5.000,0
"05/12/08","22:00:53",19018.000,"cc",28328.090,6,0.100,16025.000,0.200,2788.000,0.300,193.000,0.500,12.000,1.000,0,5.000,0
"05/12/08","22:00:59",16696.000,"cc",28342.949,6,0.100,13949.000,0.200,2569.000,0.300,173.000,0.500,5.000,1.000,0,5.000,0
"05/12/08","22:01:05",17936.000,"cc",28273.969,6,0.100,15076.000,0.200,2667.000,0.300,187.000,0.500,6.000,1.000,0,5.000,0
"05/12/08","22:01:11",26648.000,"cc",28315.633,6,0.100,22442.000,0.200,3958.000,0.300,240.000,0.500,8.000,1.000,0,5.000,0
"05/12/08","22:01:17",14280.000,"cc",28286.211,6,0.100,11969.000,0.200,2171.000,0.300,132.000,0.500,8.000,1.000,0,5.000,0
"05/12/08","22:01:23",8546.000,"cc",28313.250,6,0.100,7058.000,0.200,1399.000,0.300,80.000,0.500,9.000,1.000,0,5.000,0
"05/12/08","22:01:29",15506.000,"cc",28284.246,6,0.100,13079.000,0.200,2283.000,0.300,138.000,0.500,5.000,1.000,1.000,5.000,0
"05/12/08","22:01:35",19277.000,"cc",28333.506,6,0.100,16279.000,0.200,2809.000,0.300,183.000,0.500,6.000,1.000,0,5.000,0
"05/12/08","22:01:41",24529.000,"cc",28311.063,6,0.100,20749.000,0.200,3547.000,0.300,215.000,0.500,16.000,1.000,2.000,5.000,0
"05/12/08","22:01:47",19992.000,"cc",28322.498,6,0.100,16970.000,0.200,2852.000,0.300,167.000,0.500,3.000,1.000,0,5.000,0
"05/12/08","22:01:53",11039.000,"cc",28313.936,6,0.100,9256.000,0.200,1657.000,0.300,115.000,0.500,10.000,1.000,1.000,5.000,0
"05/12/08","22:01:59",12391.000,"cc",28336.482,6,0.100,10363.000,0.200,1913.000,0.300,108.000,0.500,7.000,1.000,0,5.000,0
"05/12/08","22:02:05",12425.000,"cc",28325.623,6,0.100,10420.000,0.200,1853.000,0.300,144.000,0.500,8.000,1.000,0,5.000,0
"05/12/08","22:02:11",11244.000,"cc",28304.701,6,0.100,9498.000,0.200,1638.000,0.300,103.000,0.500,4.000,1.000,1.000,5.000,0
"05/12/08","22:02:17",9612.000,"cc",28347.572,6,0.100,8050.000,0.200,1448.000,0.300,112.000,0.500,2.000,1.000,0,5.000,0
"05/12/08","22:02:23",12213.000,"cc",28333.231,6,0.100,10249.000,0.200,1846.000,0.300,111.000,0.500,7.000,1.000,0,5.000,0
"05/12/08","22:02:29",10574.000,"cc",28297.084,6,0.100,8882.000,0.200,1576.000,0.300,109.000,0.500,7.000,1.000,0,5.000,0
"05/12/08","22:02:35",11846.000,"cc",28269.195,6,0.100,9934.000,0.200,1786.000,0.300,118.000,0.500,8.000,1.000,0,5.000,0
"05/12/08","22:02:41",11650.000,"cc",28361.699,6,0.100,9755.000,0.200,1770.000,0.300,117.000,0.500,8.000,1.000,0,5.000,0
"05/12/08","22:02:47",15236.000,"cc",28323.074,6,0.100,12817.000,0.200,2258.000,0.300,151.000,0.500,10.000,1.000,0,5.000,0
"05/12/08","22:02:53",14091.000,"cc",28293.197,6,0.100,11869.000,0.200,2070.000,0.300,147.000,0.500,5.000,1.000,0,5.000,0
"05/12/08","22:02:59",12147.000,"cc",28279.320,6,0.100,10226.000,0.200,1803.000,0.300,111.000,0.500,6.000,1.000,1.000,5.000,0
"05/12/08","22:03:05",12179.000,"cc",28303.160,6,0.100,10308.000,0.200,1730.000,0.300,127.000,0.500,14.000,1.000,0,5.000,0
"05/12/08","22:03:11",9003.000,"cc",28339.139,6,0.100,7567.000,0.200,1334.000,0.300,95.000,0.500,7.000,1.000,0,5.000,0
"05/12/08","22:03:17",15920.000,"cc",28384.170,6,0.100,13533.000,0.200,2221.000,0.300,161.000,0.500,4.000,1.000,1.000,5.000,0
"05/12/08","22:03:23",13375.000,"cc",28311.971,6,0.100,11252.000,0.200,1988.000,0.300,127.000,0.500,6.000,1.000,2.000,5.000,0
"05/12/08","22:03:29",10532.000,"cc",28273.412,6,0.100,8872.000,0.200,1575.000,0.300,80.000,0.500,5.000,1.000,0,5.000,0
"05/12/08","22:03:35",12010.000,"cc",28338.961,6,0.100,10199.000,0.200,1697.000,0.300,105.000,0.500,9.000,1.000,0,5.000,0
"05/12/08","22:03:41",15054.000,"cc",28306.367,6,0.100,12793.000,0.200,2112.000,0.300,139.000,0.500,10.000,1.000,0,5.000,0
"05/12/08","22:03:47",16138.000,"cc",28297.598,6,0.100,13762.000,0.200,2215.000,0.300,150.000,0.500,10.000,1.000,1.000,5.000,0
"05/12/08","22:03:53",15210.000,"cc",28355.707,6,0.100,12855.000,0.200,2217.000,0.300,130.000,0.500,7.000,1.000,1.000,5.000,0
"05/12/08","22:03:59",12176.000,"cc",28329.891,6,0.100,10305.000,0.200,1775.000,0.300,90.000,0.500,5.000,1.000,1.000,5.000,0
"05/12/08","22:04:05",12034.000,"cc",28284.766,6,0.100,10206.000,0.200,1712.000,0.300,110.000,0.500,6.000,1.000,0,5.000,0
"05/12/08","22:04:11",12353.000,"cc",28337.070,6,0.100,10435.000,0.200,1796.000,0.300,114.000,0.500,8.000,1.000,0,5.000,0
"05/12/08","22:04:17",9868.000,"cc",28248.924,6,0.100,8320.000,0.200,1465.000,0.300,77.000,0.500,6.000,1.000,0,5.000,0
"05/12/08","22:04:23",11288.000,"cc",28353.272,6,0.100,9506.000,0.200,1676.000,0.300,105.000,0.500,1.000,1.000,0,5.000,0
"05/12/08","22:04:29",11727.000,"cc",28326.777,6,0.100,9870.000,0.200,1738.000,0.300,109.000,0.500,10.000,1.000,0,5.000,0
"05/12/08","22:04:35",11694.000,"cc",28318.854,6,0.100,9923.000,0.200,1663.000,0.300,99.000,0.500,8.000,1.000,1.000,5.000,0
"05/12/08","22:04:41",10150.000,"cc",28358.242,6,0.100,8578.000,0.200,1450.000,0.300,115.000,0.500,7.000,1.000,0,5.000,0
"05/12/08","22:04:47",13014.000,"cc",28297.035,6,0.100,11048.000,0.200,1855.000,0.300,102.000,0.500,9.000,1.000,0,5.000,0
"05/12/08","22:04:53",14151.000,"cc",28272.773,6,0.100,12003.000,0.200,2009.000,0.300,130.000,0.500,8.000,1.000,1.000,5.000,0
"05/12/08","22:04:59",12410.000,"cc",28300.440,6,0.100,10494.000,0.200,1789.000,0.300,115.000,0.500,12.000,1.000,0,5.000,0
"05/12/08","22:05:05",13084.000,"cc",28323.143,6,0.100,11110.000,0.200,1867.000,0.300,102.000,0.500,4.000,1.000,1.000,5.000,0
"05/12/08","22:05:11",19944.000,"cc",28360.053,6,0.100,16951.000,0.200,2817.000,0.300,169.000,0.500,6.000,1.000,1.000,5.000,0
"05/12/08","22:05:17",19139.000,"cc",28269.281,6,0.100,16257.000,0.200,2724.000,0.300,151.000,0.500,7.000,1.000,0,5.000,0
"05/12/08","22:05:23",22343.000,"cc",28344.959,6,0.100,19032.000,0.200,3119.000,0.300,187.000,0.500,5.000,1.000,0,5.000,0
"05/12/08","22:05:29",14118.000,"cc",28356.481,6,0.100,11979.000,0.200,2001.000,0.300,129.000,0.500,9.000,1.000,0,5.000,0
"05/12/08","22:05:35",14232.000,"cc",28317.525,6,0.100,12106.000,0.200,1992.000,0.300,124.000,0.500,10.000,1.000,0,5.000,0
"05/12/08","22:05:41",11442.000,"cc",28272.523,6,0.100,9600.000,0.200,1716.000,0.300,119.000,0.500,7.000,1.000,0,5.000,0
"05/12/08","22:05:47",10891.000,"cc",28335.172,6,0.100,9255.000,0.200,1528.000,0.300,98.000,0.500,9.000,1.000,1.000,5.000,0
"05/12/08","22:05:53",10029.000,"cc",28283.691,6,0.100,8489.000,0.200,1434.000,0.300,101.000,0.500,5.000,1.000,0,5.000,0
"05/12/08","22:05:59",10542.000,"cc",28313.266,6,0.100,8893.000,0.200,1536.000,0.300,104.000,0.500,9.000,1.000,0,5.000,0
"05/12/08","22:06:05",8939.000,"cc",28308.998,6,0.100,7439.000,0.200,1393.000,0.300,100.000,0.500,7.000,1.000,0,5.000,0
"05/12/08","22:06:11",9796.000,"cc",28281.256,6,0.100,8226.000,0.200,1464.000,0.300,97.000,0.500,9.000,1.000,0,5.000,0
"05/12/08","22:06:17",8653.000,"cc",28304.863,6,0.100,7298.000,0.200,1234.000,0.300,111.000,0.500,10.000,1.000,0,5.000,0
"05/12/08","22:06:23",12004.000,"cc",28384.842,6,0.100,10104.000,0.200,1746.000,0.300,143.000,0.500,10.000,1.000,1.000,5.000,0
"05/12/08","22:06:29",12131.000,"cc",28315.086,6,0.100,10209.000,0.200,1778.000,0.300,137.000,0.500,7.000,1.000,0,5.000,0
"05/12/08","22:06:35",10456.000,"cc",28299.801,6,0.100,8783.000,0.200,1547.000,0.300,117.000,0.500,9.000,1.000,0,5.000,0
"05/12/08","22:06:41",11338.000,"cc",28344.283,6,0.100,9521.000,0.200,1682.000,0.300,124.000,0.500,10.000,1.000,1.000,5.000,0
"05/12/08","22:06:47",8172.000,"cc",28296.879,6,0.100,6937.000,0.200,1142.000,0.300,83.000,0.500,10.000,1.000,0,5.000,0
"05/12/08","22:06:53",7937.000,"cc",28343.494,6,0.100,6638.000,0.200,1218.000,0.300,72.000,0.500,9.000,1.000,0,5.000,0
"05/12/08","22:06:59",6533.000,"cc",28313.848,6,0.100,5451.000,0.200,1020.000,0.300,56.000,0.500,6.000,1.000,0,5.000,0
"05/12/08","22:07:05",11116.000,"cc",28303.627,6,0.100,9424.000,0.200,1574.000,0.300,104.000,0.500,14.000,1.000,0,5.000,0
"05/12/08","22:07:11",10104.000,"cc",28296.488,6,0.100,8496.000,0.200,1493.000,0.300,106.000,0.500,9.000,1.000,0,5.000,0
"05/12/08","22:07:17",9510.000,"cc",28319.443,6,0.100,7968.000,0.200,1443.000,0.300,91.000,0.500,6.000,1.000,2.000,5.000,0
"05/12/08","22:07:23",10817.000,"cc",28344.150,6,0.100,9135.000,0.200,1561.000,0.300,112.000,0.500,9.000,1.000,0,5.000,0
"05/12/08","22:07:29",12751.000,"cc",28300.391,6,0.100,10743.000,0.200,1895.000,0.300,105.000,0.500,8.000,1.000,0,5.000,0
"05/12/08","22:07:35",7170.000,"cc",28267.225,6,0.100,6056.000,0.200,1043.000,0.300,69.000,0.500,2.000,1.000,0,5.000,0
"05/12/08","22:07:41",11627.000,"cc",28370.172,6,0.100,9796.000,0.200,1704.000,0.300,123.000,0.500,4.000,1.000,0,5.000,0
"05/12/08","22:07:47",11124.000,"cc",28375.965,6,0.100,9474.000,0.200,1542.000,0.300,98.000,0.500,9.000,1.000,1.000,5.000,0
"05/12/08","22:07:53",11052.000,"cc",28231.588,6,0.100,9353.000,0.200,1593.000,0.300,100.000,0.500,6.000,1.000,0,5.000,0
"05/12/08","22:07:59",9443.000,"cc",28319.088,6,0.100,7969.000,0.200,1385.000,0.300,80.000,0.500,9.000,1.000,0,5.000,0
"05/12/08","22:08:05",7988.000,"cc",28349.145,6,0.100,6787.000,0.200,1109.000,0.300,84.000,0.500,7.000,1.000,1.000,5.000,0
"05/12/08","22:08:11",5118.000,"cc",28320.332,6,0.100,4301.000,0.200,755.000,0.300,50.000,0.500,12.000,1.000,0,5.000,0
"05/12/08","22:08:17",7250.000,"cc",28301.881,6,0.100,6097.000,0.200,1075.000,0.300,73.000,0.500,5.000,1.000,0,5.000,0
"05/12/08","22:08:23",8983.000,"cc",28306.029,6,0.100,7554.000,0.200,1322.000,0.300,90.000,0.500,15.000,1.000,2.000,5.000,0
"05/12/08","22:08:29",7473.000,"cc",28345.213,6,0.100,6293.000,0.200,1091.000,0.300,86.000,0.500,3.000,1.000,0,5.000,0
"05/12/08","22:08:35",7293.000,"cc",28298.209,6,0.100,6140.000,0.200,1081.000,0.300,63.000,0.500,9.000,1.000,0,5.000,0
"05/12/08","22:08:41",8009.000,"cc",28305.965,6,0.100,6707.000,0.200,1227.000,0.300,67.000,0.500,8.000,1.000,0,5.000,0
"05/12/08","22:08:47",11441.000,"cc",28298.912,6,0.100,9679.000,0.200,1648.000,0.300,109.000,0.500,5.000,1.000,0,5.000,0
"05/12/08","22:08:53",8531.000,"cc",28331.209,6,0.100,7165.000,0.200,1258.000,0.300,97.000,0.500,11.000,1.000,0,5.000,0
"05/12/08","22:08:59",6359.000,"cc",28294.508,6,0.100,5307.000,0.200,970.000,0.300,76.000,0.500,6.000,1.000,0,5.000,0
"05/12/08","22:09:05",6117.000,"cc",28315.879,6,0.100,5048.000,0.200,988.000,0.300,73.000,0.500,8.000,1.000,0,5.000,0
"05/12/08","22:09:11",6648.000,"cc",28297.186,6,0.100,5566.000,0.200,1001.000,0.300,72.000,0.500,9.000,1.000,0,5.000,0
"05/12/08","22:09:17",6706.000,"cc",28267.563,6,0.100,5605.000,0.200,1021.000,0.300,73.000,0.500,5.000,1.000,2.000,5.000,0
"05/12/08","22:09:23",9280.000,"cc",28400.658,6,0.100,7751.000,0.200,1402.000,0.300,113.000,0.500,14.000,1.000,0,5.000,0
"05/12/08","22:09:29",9452.000,"cc",28280.543,6,0.100,7962.000,0.200,1368.000,0.300,106.000,0.500,14.000,1.000,2.000,5.000,0
"05/12/08","22:09:35",8465.000,"cc",28318.121,6,0.100,7124.000,0.200,1234.000,0.300,90.000,0.500,17.000,1.000,0,5.000,0
"05/12/08","22:09:41",8889.000,"cc",28329.293,6,0.100,7554.000,0.200,1237.000,0.300,93.000,0.500,5.000,1.000,0,5.000,0
"05/12/08","22:09:47",9449.000,"cc",28316.648,6,0.100,8017.000,0.200,1333.000,0.300,93.000,0.500,6.000,1.000,0,5.000,0
"05/12/08","22:09:53",8259.000,"cc",28315.479,6,0.100,6904.000,0.200,1262.000,0.300,85.000,0.500,7.000,1.000,1.000,5.000,0
"05/12/08","22:09:59",10062.000,"cc",28324.539,6,0.100,8545.000,0.200,1410.000,0.300,96.000,0.500,9.000,1.000,2.000,5.000,0
"05/12/08","22:10:05",11220.000,"cc",28323.447,6,0.100,9475.000,0.200,1645.000,0.300,92.000,0.500,8.000,1.000,0,5.000,0
"05/12/08","22:10:11",19408.000,"cc",28325.088,6,0.100,16437.000,0.200,2784.000,0.300,176.000,0.500,10.000,1.000,1.000,5.000,0
"05/12/08","22:10:17",14770.000,"cc",28343.756,6,0.100,12522.000,0.200,2119.000,0.300,121.000,0.500,8.000,1.000,0,5.000,0
"05/12/08","22:10:23",17093.000,"cc",28328.992,6,0.100,14592.000,0.200,2355.000,0.300,137.000,0.500,8.000,1.000,1.000,5.000,0
"05/12/08","22:10:29",18980.000,"cc",28324.576,6,0.100,16156.000,0.200,2671.000,0.300,145.000,0.500,7.000,1.000,1.000,5.000,0
"05/12/08","22:10:35",16983.000,"cc",28305.690,6,0.100,14463.000,0.200,2356.000,0.300,158.000,0.500,6.000,1.000,0,5.000,0
"05/12/08","22:10:41",10604.000,"cc",28283.598,6,0.100,8998.000,0.200,1508.000,0.300,92.000,0.500,6.000,1.000,0,5.000,0
"05/12/08","22:10:47",9902.000,"cc",28289.648,6,0.100,8421.000,0.200,1396.000,0.300,76.000,0.500,9.000,1.000,0,5.000,0
"05/12/08","22:10:53",11092.000,"cc",28355.156,6,0.100,9403.000,0.200,1580.000,0.300,100.000,0.500,9.000,1.000,0,5.000,0
"05/12/08","22:10:59",9700.000,"cc",28330.084,6,0.100,8257.000,0.200,1357.000,0.300,84.000,0.500,2.000,1.000,0,5.000,0
"05/12/08","22:11:05",11784.000,"cc",28290.506,6,0.100,10062.000,0.200,1617.000,0.300,93.000,0.500,12.000,1.000,0,5.000,0
"05/12/08","22:11:11",13113.000,"cc",28298.826,6,0.100,11139.000,0.200,1867.000,0.300,100.000,0.500,6.000,1.000,1.000,5.000,0
"05/12/08","22:11:17",18188.000,"cc",28344.361,6,0.100,15501.000,0.200,2543.000,0.300,133.000,0.500,10.000,1.000,1.000,5.000,0
"05/12/08","22:11:23",13511.000,"cc",28370.963,6,0.100,11526.000,0.200,1875.000,0.300,99.000,0.500,11.000,1.000,0,5.000,0
"05/12/08","22:11:29",11400.000,"cc",28263.434,6,0.100,9676.000,0.200,1638.000,0.300,80.000,0.500,6.000,1.000,0,5.000,0
"05/12/08","22:11:35",8931.000,"cc",28248.824,6,0.100,7536.000,0.200,1318.000,0.300,68.000,0.500,9.000,1.000,0,5.000,0
"05/12/08","22:11:41",12672.000,"cc",28317.066,6,0.100,10830.000,0.200,1758.000,0.300,75.000,0.500,8.000,1.000,1.000,5.000,0
"05/12/08","22:11:47",15837.000,"cc",28378.217,6,0.100,13563.000,0.200,2150.000,0.300,119.000,0.500,4.000,1.000,1.000,5.000,0
"05/12/08","22:11:53",22898.000,"cc",28329.979,6,0.100,19736.000,0.200,2994.000,0.300,163.000,0.500,5.000,1.000,0,5.000,0
"05/12/08","22:11:59",26556.000,"cc",28372.236,6,0.100,22728.000,0.200,3639.000,0.300,186.000,0.500,3.000,1.000,0,5.000,0
"05/12/08","22:12:05",24264.000,"cc",28305.029,6,0.100,20781.000,0.200,3327.000,0.300,148.000,0.500,8.000,1.000,0,5.000,0
"05/12/08","22:12:11",17911.000,"cc",28254.969,6,0.100,15254.000,0.200,2497.000,0.300,153.000,0.500,7.000,1.000,0,5.000,0
"05/12/08","22:12:17",13359.000,"cc",28336.785,6,0.100,11387.000,0.200,1853.000,0.300,108.000,0.500,10.000,1.000,1.000,5.000,0
"05/12/08","22:12:23",14060.000,"cc",28333.822,6,0.100,12015.000,0.200,1938.000,0.300,106.000,0.500,1.000,1.000,0,5.000,0
"05/12/08","22:12:29",13695.000,"cc",28343.777,6,0.100,11570.000,0.200,2015.000,0.300,103.000,0.500,7.000,1.000,0,5.000,0
"05/12/08","22:12:35",14877.000,"cc",28267.486,6,0.100,12677.000,0.200,2077.000,0.300,116.000,0.500,7.000,1.000,0,5.000,0
"05/12/08","22:12:41",16599.000,"cc",28306.875,6,0.100,14180.000,0.200,2279.000,0.300,129.000,0.500,10.000,1.000,1.000,5.000,0
"05/12/08","22:12:47",13752.000,"cc",28320.547,6,0.100,11714.000,0.200,1912.000,0.300,118.000,0.500,8.000,1.000,0,5.000,0
"05/12/08","22:12:53",11266.000,"cc",28293.373,6,0.100,9561.000,0.200,1610.000,0.300,88.000,0.500,7.000,1.000,0,5.000,0
"05/12/08","22:12:59",14312.000,"cc",28333.690,6,0.100,12162.000,0.200,2043.000,0.300,97.000,0.500,10.000,1.000,0,5.000,0
"05/12/08","22:13:05",10008.000,"cc",28346.684,6,0.100,8451.000,0.200,1454.000,0.300,98.000,0.500,5.000,1.000,0,5.000,0
"05/12/08","22:13:11",10124.000,"cc",28323.815,6,0.100,8521.000,0.200,1495.000,0.300,101.000,0.500,6.000,1.000,1.000,5.000,0
"05/12/08","22:13:17",8298.000,"cc",28341.522,6,0.100,6894.000,0.200,1308.000,0.300,86.000,0.500,10.000,1.000,0,5.000,0
"05/12/08","22:13:23",9804.000,"cc",28317.889,6,0.100,8225.000,0.200,1481.000,0.300,90.000,0.500,8.000,1.000,0,5.000,0
"05/12/08","22:13:29",13552.000,"cc",28292.543,6,0.100,11409.000,0.200,2008.000,0.300,132.000,0.500,3.000,1.000,0,5.000,0
"05/12/08","22:13:35",14251.000,"cc",28344.375,6,0.100,12053.000,0.200,2078.000,0.300,113.000,0.500,6.000,1.000,1.000,5.000,0
"05/12/08","22:13:41",10431.000,"cc",28312.818,6,0.100,8763.000,0.200,1547.000,0.300,114.000,0.500,6.000,1.000,1.000,5.000,0
"05/12/08","22:13:47",10345.000,"cc",28285.633,6,0.100,8725.000,0.200,1510.000,0.300,103.000,0.500,7.000,1.000,0,5.000,0
"05/12/08","22:13:53",16514.000,"cc",28338.563,6,0.100,13958.000,0.200,2397.000,0.300,151.000,0.500,5.000,1.000,3.000,5.000,0
"05/12/08","22:13:59",20037.000,"cc",28335.967,6,0.100,16991.000,0.200,2865.000,0.300,178.000,0.500,3.000,1.000,0,5.000,0
"05/12/08","22:14:05",15872.000,"cc",28267.051,6,0.100,13406.000,0.200,2302.000,0.300,154.000,0.500,9.000,1.000,1.000,5.000,0
"05/12/08","22:14:11",16730.000,"cc",28326.967,6,0.100,14053.000,0.200,2509.000,0.300,160.000,0.500,7.000,1.000,1.000,5.000,0
"05/12/08","22:14:17",17070.000,"cc",28349.199,6,0.100,14325.000,0.200,2558.000,0.300,178.000,0.500,9.000,1.000,0,5.000,0
"05/12/08","22:14:23",14768.000,"cc",28364.229,6,0.100,12455.000,0.200,2160.000,0.300,145.000,0.500,8.000,1.000,0,5.000,0
"05/12/08","22:14:29",19912.000,"cc",28248.250,6,0.100,16741.000,0.200,2954.000,0.300,206.000,0.500,11.000,1.000,0,5.000,0
"05/12/08","22:14:35",19031.000,"cc",28309.344,6,0.100,16048.000,0.200,2758.000,0.300,216.000,0.500,9.000,1.000,0,5.000,0
"05/12/08","22:14:41",16666.000,"cc",28329.414,6,0.100,13989.000,0.200,2491.000,0.300,180.000,0.500,6.000,1.000,0,5.000,0
"05/12/08","22:14:47",12241.000,"cc",28271.234,6,0.100,10301.000,0.200,1794.000,0.300,139.000,0.500,6.000,1.000,1.000,5.000,0
"05/12/08","22:14:53",12229.000,"cc",28330.027,6,0.100,10236.000,0.200,1844.000,0.300,145.000,0.500,4.000,1.000,0,5.000,0
"05/12/08","22:14:59",15450.000,"cc",28353.900,6,0.100,13021.000,0.200,2261.000,0.300,157.000,0.500,8.000,1.000,3.000,5.000,0
"05/12/08","22:15:05",19522.000,"cc",28331.186,6,0.100,16471.000,0.200,2839.000,0.300,203.000,0.500,8.000,1.000,1.000,5.000,0
"05/12/08","22:15:11",13642.000,"cc",28287.344,6,0.100,11429.000,0.200,2048.000,0.300,157.000,0.500,8.000,1.000,0,5.000,0
"05/12/08","22:15:17",11035.000,"cc",28317.943,6,0.100,9220.000,0.200,1703.000,0.300,101.000,0.500,9.000,1.000,2.000,5.000,0
"05/12/08","22:15:23",12614.000,"cc",28369.379,6,0.100,10559.000,0.200,1904.000,0.300,136.000,0.500,14.000,1.000,1.000,5.000,0
"05/12/08","22:15:29",14028.000,"cc",28286.039,6,0.100,11763.000,0.200,2096.000,0.300,159.000,0.500,10.000,1.000,0,5.000,0
"05/12/08","22:15:35",18710.000,"cc",28288.141,6,0.100,15830.000,0.200,2676.000,0.300,199.000,0.500,5.000,1.000,0,5.000,0
"05/12/08","22:15:41",29475.000,"cc",28279.412,6,0.100,24966.000,0.200,4223.000,0.300,283.000,0.500,3.000,1.000,0,5.000,0
"05/12/08","22:15:47",17239.000,"cc",28289.936,6,0.100,14629.000,0.200,2435.000,0.300,164.000,0.500,11.000,1.000,0,5.000,0
"05/12/08","22:15:53",10710.000,"cc",28384.395,6,0.100,9068.000,0.200,1532.000,0.300,102.000,0.500,8.000,1.000,0,5.000,0
"05/12/08","22:15:59",15320.000,"cc",28355.465,6,0.100,12999.000,0.200,2163.000,0.300,154.000,0.500,3.000,1.000,1.000,5.000,0
"05/12/08","22:16:05",10604.000,"cc",28326.641,6,0.100,8944.000,0.200,1535.000,0.300,118.000,0.500,7.000,1.000,0,5.000,0
"05/12/08","22:16:11",10369.000,"cc",28314.809,6,0.100,8683.000,0.200,1585.000,0.300,93.000,0.500,8.000,1.000,0,5.000,0
"05/12/08","22:16:17",11701.000,"cc",28320.201,6,0.100,9809.000,0.200,1757.000,0.300,124.000,0.500,10.000,1.000,1.000,5.000,0
"05/12/08","22:16:23",13677.000,"cc",28310.164,6,0.100,11566.000,0.200,1977.000,0.300,127.000,0.500,7.000,1.000,0,5.000,0
"05/12/08","22:16:29",19221.000,"cc",28334.740,6,0.100,16060.000,0.200,2929.000,0.300,211.000,0.500,18.000,1.000,3.000,5.000,0
"05/12/08","22:16:35",14572.000,"cc",28245.652,6,0.100,12186.000,0.200,2210.000,0.300,167.000,0.500,8.000,1.000,1.000,5.000,0
"05/12/08","22:16:41",17508.000,"cc",28339.375,6,0.100,14711.000,0.200,2621.000,0.300,165.000,0.500,11.000,1.000,0,5.000,0
"05/12/08","22:16:47",16555.000,"cc",28287.549,6,0.100,13808.000,0.200,2566.000,0.300,168.000,0.500,13.000,1.000,0,5.000,0
"05/12/08","22:16:53",10598.000,"cc",28353.008,6,0.100,8857.000,0.200,1617.000,0.300,115.000,0.500,8.000,1.000,1.000,5.000,0
"05/12/08","22:16:59",11105.000,"cc",28358.152,6,0.100,9326.000,0.200,1644.000,0.300,128.000,0.500,7.000,1.000,0,5.000,0
"05/12/08","22:17:05",12577.000,"cc",28282.975,6,0.100,10498.000,0.200,1925.000,0.300,143.000,0.500,11.000,1.000,0,5.000,0
"05/12/08","22:17:11",8413.000,"cc",28315.098,6,0.100,7019.000,0.200,1300.000,0.300,87.000,0.500,6.000,1.000,1.000,5.000,0
"05/12/08","22:17:17",18426.000,"cc",28330.115,6,0.100,15530.000,0.200,2688.000,0.300,197.000,0.500,8.000,1.000,3.000,5.000,0
"05/12/08","22:17:23",16421.000,"cc",28287.354,6,0.100,13779.000,0.200,2447.000,0.300,184.000,0.500,10.000,1.000,1.000,5.000,0
"05/12/08","22:17:29",15943.000,"cc",28352.816,6,0.100,13310.000,0.200,2449.000,0.300,173.000,0.500,11.000,1.000,0,5.000,0
"05/12/08","22:17:35",11598.000,"cc",28324.266,6,0.100,9720.000,0.200,1735.000,0.300,134.000,0.500,8.000,1.000,1.000,5.000,0
"05/12/08","22:17:41",15405.000,"cc",28291.582,6,0.100,12817.000,0.200,2384.000,0.300,192.000,0.500,11.000,1.000,1.000,5.000,0
"05/12/08","22:17:47",16985.000,"cc",28263.666,6,0.100,14236.000,0.200,2545.000,0.300,193.000,0.500,11.000,1.000,0,5.000,0
"05/12/08","22:17:53",14565.000,"cc",28290.098,6,0.100,12139.000,0.200,2240.000,0.300,174.000,0.500,12.000,1.000,0,5.000,0
"05/12/08","22:17:59",19807.000,"cc",28345.318,6,0.100,16540.000,0.200,3016.000,0.300,240.000,0.500,11.000,1.000,0,5.000,0
"05/12/08","22:18:05",18247.000,"cc",28373.076,6,0.100,15293.000,0.200,2751.000,0.300,200.000,0.500,2.000,1.000,1.000,5.000,0
"05/12/08","22:18:11",17836.000,"cc",28349.996,6,0.100,15068.000,0.200,2543.000,0.300,211.000,0.500,13.000,1.000,1.000,5.000,0
"05/12/08","22:18:17",17851.000,"cc",28313.682,6,0.100,14967.000,0.200,2678.000,0.300,188.000,0.500,18.000,1.000,0,5.000,0